Regional Weather Roundup
Issued by NWS Nashville, TN

Home | Current Version | Previous Version | Text Only | Print | Product List | Glossary On
Versions: 1 2 3 4 5 6 7 8 9 10 11 12 13 14 15 16 17 18 19 20 21 22 23 24 25 26 27 28 29 30 31 32 33 34 35 36 37 38 39 40 41 42 43 44 45 46 47 48 49 50
000
ASUS44 KOHX 210415
RWROHX
MIDDLE TENNESSEE HOURLY WEATHER ROUNDUP
NATIONAL WEATHER SERVICE NASHVILLE TN
1100 PM CDT SAT SEP 20 2014

NOTE: "FAIR" INDICATES FEW OR NO CLOUDS BELOW 12,000 FEET WITH
NO SIGNIFICANT WEATHER AND/OR OBSTRUCTIONS TO VISIBILITY.

* THESE REPORTS ARE NOT UNDER NWS QUALITY CONTROL AND MAY NOT
  REPORT WEATHER SUCH AS PRECIPITATION AND FOG.


TNZ005>011-023>034-057-059-062>066-078-080-210500
...NORTHERN MIDDLE TENNESSEE...

CITY           SKY/WX    TMP DP  RH WIND       PRES   REMARKS
CLARKSVILLE    CLEAR     71  66  84 S6        30.00F
CROSSVILLE     CLEAR     65  60  84 CALM      30.10S
GALLATIN         N/A     68  67  96 CALM      30.03S
DICKSON        CLEAR     70  64  83 SW5       30.03S
LEBANON        CLEAR     68  64  86 CALM      30.01F
LIVINGSTON     CLEAR     68  62  80 SW3       30.06F
NASHVILLE      PTCLDY    71  66  84 S3        30.03S
WEST NASHVILLE   N/A     70  70 100 CALM      30.02S
PORTLAND       CLEAR     66  64  94 S3        30.02R
SMYRNA         CLEAR     69  65  87 CALM      30.03F
SPARTA         PTCLDY    66  64  94 CALM      30.05F
$$
TNZ056-058-060-061-075>077-079-093>097-210500
...SOUTHERN MIDDLE TENNESSEE...

CITY           SKY/WX    TMP DP  RH WIND       PRES   REMARKS
COLUMBIA       CLEAR     70  70 100 CALM      30.03S
FAYETTEVILLE   CLEAR     66  61  82 MISG      30.06F
LEWISBURG      CLEAR     69  65  87 CALM      30.04S
MCMINNVILLE    CLEAR     64  64 100 CALM      30.06F
MURFREESBORO   CLEAR     73  63  71 S5        30.02
SHELBYVILLE    CLEAR     66  64  94 SE3       30.05F
WINCHESTER     CLEAR     63  61  94 CALM      30.07F
$$


...KEY TO REMARKS...
VSB - VISIBILITY IN MILES
WCI - WIND CHILL INDEX
HX  - HEAT INDEX



USA.gov is the U.S. government's official web portal to all federal, state and local government web resources and services.